TimeEDT,TemperatureF,Dew PointF,Humidity,Sea Level PressureIn,VisibilityMPH,Wind Direction,Wind SpeedMPH,Gust SpeedMPH,PrecipitationIn,Events,Conditions,WindDirDegrees,DateUTC
12:15 AM,62.6,62.6,100,29.88,5.0,SSW,9.2,-,N/A,,Scattered Clouds,210,2012-10-14 04:15:00
12:34 AM,64.4,62.6,94,29.87,5.0,SSW,8.1,-,N/A,,Scattered Clouds,210,2012-10-14 04:34:00
12:55 AM,64.4,62.6,94,29.86,5.0,SSW,8.1,-,N/A,,Scattered Clouds,200,2012-10-14 04:55:00
1:15 AM,64.4,62.6,94,29.86,5.0,SSW,8.1,-,N/A,,Mostly Cloudy,200,2012-10-14 05:15:00
1:34 AM,64.4,62.6,94,29.86,5.0,SSW,9.2,-,N/A,,Mostly Cloudy,200,2012-10-14 05:34:00
1:55 AM,64.4,62.6,94,29.86,5.0,SSW,9.2,-,N/A,Rain,Rain,210,2012-10-14 05:55:00
2:15 AM,64.4,62.6,94,29.86,5.0,SSW,9.2,-,N/A,Rain,Rain,210,2012-10-14 06:15:00
2:34 AM,62.6,62.6,100,29.86,5.0,SSW,8.1,-,N/A,,Light Drizzle,210,2012-10-14 06:34:00
2:55 AM,62.6,62.6,100,29.85,5.0,SSW,9.2,-,N/A,Rain,Light Rain,200,2012-10-14 06:55:00
3:34 AM,62.6,62.6,100,29.83,5.0,SSW,10.4,-,N/A,,Clear,200,2012-10-14 07:34:00
3:55 AM,64.4,60.8,88,29.83,7.0,SSW,10.4,-,N/A,,Scattered Clouds,200,2012-10-14 07:55:00
4:15 AM,64.4,62.6,94,29.83,7.0,SSW,10.4,17.3,N/A,,Overcast,200,2012-10-14 08:15:00
4:34 AM,64.4,62.6,94,29.82,7.0,SSW,11.5,-,N/A,,Mostly Cloudy,200,2012-10-14 08:34:00
4:55 AM,64.4,62.6,94,29.82,7.0,SSW,12.7,-,N/A,,Mostly Cloudy,200,2012-10-14 08:55:00
5:15 AM,64.4,62.6,94,29.81,5.0,SSW,8.1,-,N/A,Rain,Rain,210,2012-10-14 09:15:00
5:35 AM,64.4,62.6,94,29.80,7.0,SSW,10.4,-,N/A,Rain,Light Rain,210,2012-10-14 09:35:00
5:55 AM,64.4,62.6,94,29.80,7.0,SSW,11.5,-,N/A,Rain,Rain,200,2012-10-14 09:55:00
6:14 AM,64.4,62.6,94,29.79,7.0,SSW,11.5,-,N/A,Rain,Light Rain,200,2012-10-14 10:14:00
6:35 AM,64.4,62.6,94,29.78,7.0,South,15.0,19.6,N/A,,Overcast,190,2012-10-14 10:35:00
6:55 AM,64.4,62.6,94,29.77,7.0,South,15.0,-,N/A,,Mostly Cloudy,190,2012-10-14 10:55:00
7:15 AM,64.4,62.6,94,29.76,7.0,South,12.7,19.6,N/A,,Scattered Clouds,190,2012-10-14 11:15:00
7:35 AM,64.4,62.6,94,29.75,10.0,South,12.7,17.3,N/A,,Scattered Clouds,190,2012-10-14 11:35:00
7:55 AM,66.2,62.6,88,29.74,10.0,South,16.1,20.7,N/A,,Overcast,190,2012-10-14 11:55:00
8:14 AM,64.4,62.6,94,29.73,10.0,South,15.0,23.0,N/A,,Scattered Clouds,190,2012-10-14 12:14:00
8:35 AM,66.2,62.6,88,29.71,10.0,South,17.3,23.0,N/A,,Clear,180,2012-10-14 12:35:00
8:55 AM,66.2,60.8,83,29.69,10.0,South,17.3,28.8,N/A,,Scattered Clouds,170,2012-10-14 12:55:00
9:14 AM,66.2,60.8,83,29.70,10.0,South,20.7,27.6,N/A,,Scattered Clouds,180,2012-10-14 13:14:00
9:35 AM,64.4,60.8,88,29.69,10.0,South,18.4,23.0,N/A,,Mostly Cloudy,180,2012-10-14 13:35:00
9:55 AM,64.4,60.8,88,29.66,10.0,South,18.4,25.3,N/A,,Overcast,170,2012-10-14 13:55:00
10:15 AM,66.2,60.8,83,29.65,10.0,South,17.3,23.0,N/A,,Scattered Clouds,170,2012-10-14 14:15:00
10:35 AM,66.2,60.8,83,29.64,10.0,South,21.9,29.9,N/A,,Mostly Cloudy,180,2012-10-14 14:35:00
10:55 AM,66.2,60.8,83,29.64,10.0,South,15.0,26.5,N/A,,Overcast,190,2012-10-14 14:55:00
11:15 AM,66.2,60.8,83,29.64,10.0,South,20.7,33.4,N/A,,Overcast,190,2012-10-14 15:15:00
11:35 AM,66.2,60.8,83,29.66,10.0,SSW,23.0,32.2,N/A,,Overcast,210,2012-10-14 15:35:00
11:54 AM,66.2,60.8,83,29.66,10.0,SSW,24.2,34.5,N/A,,Overcast,210,2012-10-14 15:54:00
12:15 PM,66.2,60.8,83,29.65,10.0,SSW,21.9,31.1,N/A,Rain,Light Rain,200,2012-10-14 16:15:00
12:35 PM,68.0,60.8,78,29.65,10.0,SSW,25.3,29.9,N/A,,Overcast,200,2012-10-14 16:35:00
12:54 PM,68.0,62.6,83,29.65,10.0,South,17.3,31.1,N/A,,Overcast,190,2012-10-14 16:54:00
1:15 PM,68.0,60.8,78,29.63,10.0,SSW,20.7,28.8,N/A,,Mostly Cloudy,200,2012-10-14 17:15:00
1:35 PM,68.0,60.8,78,29.62,10.0,South,20.7,28.8,N/A,,Mostly Cloudy,190,2012-10-14 17:35:00
1:55 PM,66.2,62.6,88,29.60,10.0,South,18.4,26.5,N/A,,Mostly Cloudy,190,2012-10-14 17:55:00
2:15 PM,66.2,62.6,88,29.59,10.0,SSW,18.4,31.1,N/A,,Mostly Cloudy,200,2012-10-14 18:15:00
2:34 PM,66.2,62.6,88,29.58,10.0,South,18.4,24.2,N/A,,Scattered Clouds,190,2012-10-14 18:34:00
2:55 PM,66.2,62.6,88,29.57,10.0,SSW,20.7,27.6,N/A,,Clear,200,2012-10-14 18:55:00
3:15 PM,68.0,62.6,83,29.55,10.0,SSW,23.0,28.8,N/A,,Scattered Clouds,200,2012-10-14 19:15:00
3:34 PM,69.8,60.8,73,29.54,10.0,SSW,24.2,33.4,N/A,,Scattered Clouds,210,2012-10-14 19:34:00
3:55 PM,68.0,60.8,78,29.54,10.0,South,15.0,23.0,N/A,,Scattered Clouds,190,2012-10-14 19:55:00
4:14 PM,69.8,60.8,73,29.52,10.0,SSW,20.7,27.6,N/A,,Scattered Clouds,210,2012-10-14 20:14:00
4:35 PM,69.8,59.0,68,29.52,10.0,SSW,20.7,28.8,N/A,,Clear,210,2012-10-14 20:35:00
4:54 PM,69.8,60.8,73,29.51,10.0,SSW,15.0,25.3,N/A,,Clear,210,2012-10-14 20:54:00
5:15 PM,68.0,59.0,73,29.51,10.0,South,18.4,33.4,N/A,,Clear,190,2012-10-14 21:15:00
5:35 PM,66.2,60.8,83,29.50,10.0,SSW,18.4,26.5,N/A,,Clear,200,2012-10-14 21:35:00
5:54 PM,66.2,57.2,73,29.49,10.0,SSW,23.0,29.9,N/A,,Clear,210,2012-10-14 21:54:00
6:15 PM,66.2,55.4,68,29.49,10.0,SW,24.2,29.9,N/A,,Clear,220,2012-10-14 22:15:00
6:35 PM,66.2,57.2,73,29.48,10.0,SSW,13.8,-,N/A,,Scattered Clouds,200,2012-10-14 22:35:00
6:55 PM,66.2,55.4,68,29.47,10.0,SSW,16.1,26.5,N/A,,Mostly Cloudy,210,2012-10-14 22:55:00
7:15 PM,66.2,55.4,68,29.46,10.0,SSW,18.4,26.5,N/A,Rain,Rain,200,2012-10-14 23:15:00
7:35 PM,60.8,57.2,88,29.49,7.0,SW,27.6,36.8,N/A,Rain,Light Rain,220,2012-10-14 23:35:00
7:54 PM,60.8,55.4,82,29.48,10.0,SW,24.2,29.9,N/A,,Mostly Cloudy,220,2012-10-14 23:54:00
8:15 PM,60.8,57.2,88,29.47,10.0,SW,15.0,25.3,N/A,,Overcast,220,2012-10-15 00:15:00
8:35 PM,60.8,55.4,82,29.48,10.0,SW,25.3,32.2,N/A,,Overcast,230,2012-10-15 00:35:00
8:54 PM,57.2,53.6,88,29.49,7.0,WSW,20.7,36.8,N/A,,Overcast,240,2012-10-15 00:54:00
9:15 PM,55.4,53.6,94,29.50,3.0,WSW,20.7,32.2,N/A,,Drizzle,240,2012-10-15 01:15:00
9:35 PM,55.4,53.6,94,29.50,5.0,SW,19.6,32.2,N/A,Rain,Light Rain,230,2012-10-15 01:35:00
9:55 PM,53.6,53.6,100,29.52,7.0,WSW,18.4,24.2,N/A,Rain,Light Rain,240,2012-10-15 01:55:00
10:15 PM,53.6,51.8,94,29.56,4.0,WNW,16.1,26.5,N/A,,Drizzle,290,2012-10-15 02:15:00
10:34 PM,51.8,50.0,94,29.59,5.0,WNW,18.4,24.2,N/A,Rain,Rain,290,2012-10-15 02:34:00
10:55 PM,51.8,48.2,88,29.62,5.0,West,11.5,31.1,N/A,,Overcast,280,2012-10-15 02:55:00
11:15 PM,51.8,48.2,88,29.63,7.0,West,16.1,27.6,N/A,,Overcast,280,2012-10-15 03:15:00
11:35 PM,50.0,48.2,94,29.65,4.0,WNW,13.8,24.2,N/A,Rain,Light Rain,290,2012-10-15 03:35:00
11:55 PM,50.0,48.2,94,29.66,7.0,West,15.0,20.7,N/A,,Overcast,280,2012-10-15 03:55:00